Kailua Kona, HI

4:43 PM HST on January 16, 2017 (GMT -1000)
Kona International At Keahole

Weather History for PHKO - December, 2014

Change the Weather History Date:

Tuesday, December 9, 2014

  Actual Average Record
Temperature  
Mean Temperature 76 °F -  
Max Temperature 84 °F 80 °F 88 °F (1989)
Min Temperature 69 °F 68 °F 65 °F (1986)
Cooling Degree Days 12    
Growing Degree Days 26 (Base 50)    
Moisture  
Dew Point 63 °F    
Average Humidity 63    
Maximum Humidity 73    
Minimum Humidity 45    
Precipitation  
Precipitation 0.00 in - - ()
Sea Level Pressure  
Sea Level Pressure 30.06 in    
Wind  
Wind Speed 8 mph (NE)    
Max Wind Speed 18 mph    
Max Gust Speed -    
Visibility 10 miles    
Events      
Averages and records for this station are not official NWS values.
T = Trace of Precipitation, MM = Missing Value Source: NWS Daily Summary

Daily Weather History Graph

Daily Weather History Graph

Search for Another Location

Airport or City:

Trip Planner

Search our weather history database for the weather conditions in past years. The results will help you decide how hot, cold, wet, or windy it might be!

Date:

Astronomy

Dec. 09, 2014 Rise Set
Actual Time 6:47 AM HST 5:45 PM HST
Civil Twilight 6:23 AM HST 6:09 PM HST
Nautical Twilight 5:56 AM HST 6:37 PM HST
Astronomical Twilight 5:29 AM HST 7:04 PM HST
Moon 8:58 PM HST (12/9) 9:21 AM HST (12/9)
Length of Visible Light 11h 46m
Length of Day
10h 58m
Waning Gibbous, 89% of the Moon is Illuminated
Dec 9
Waning Gibbous
Dec 14
Last Quarter
Dec 21
New
Dec 28
First Quarter
Jan 4
Full

Hourly Weather History & Observations

Time (HST) Temp. Heat Index Dew Point Humidity Pressure Visibility Wind Dir Wind Speed Gust Speed Precip Events Conditions
12:53 AM 72.0 °F - 60.1 °F 66% 30.06 in 10.0 mi NE 6.9 mph - N/A   Clear
1:53 AM 71.1 °F - 60.1 °F 68% 30.04 in 10.0 mi ENE 4.6 mph - N/A   Clear
2:53 AM 70.0 °F - 60.1 °F 71% 30.03 in 10.0 mi ENE 3.5 mph - N/A   Clear
3:53 AM 71.1 °F - 59.0 °F 66% 30.04 in 10.0 mi East 3.5 mph - N/A   Clear
4:53 AM 70.0 °F - 59.0 °F 68% 30.04 in 10.0 mi East 3.5 mph - N/A   Clear
5:53 AM 69.1 °F - 60.1 °F 73% 30.05 in 10.0 mi ENE 4.6 mph - N/A   Clear
6:53 AM 70.0 °F - 60.1 °F 71% 30.07 in 10.0 mi NE 8.1 mph - N/A   Clear
7:53 AM 75.0 °F - 60.1 °F 60% 30.08 in 10.0 mi NE 9.2 mph - N/A   Clear
8:53 AM 80.1 °F 80.9 °F 60.1 °F 50% 30.09 in 10.0 mi North 13.8 mph - N/A   Clear
9:53 AM 82.0 °F 82.1 °F 59.0 °F 45% 30.08 in 10.0 mi North 15.0 mph - N/A   Clear
10:53 AM 82.9 °F 83.2 °F 60.1 °F 46% 30.08 in 10.0 mi NNW 12.7 mph - N/A   Clear
11:53 AM 82.9 °F 84.4 °F 64.0 °F 53% 30.06 in 10.0 mi NNW 16.1 mph - N/A   Clear
12:53 PM 82.9 °F 84.6 °F 64.9 °F 54% 30.05 in 10.0 mi NNW 18.4 mph - N/A   Clear
1:53 PM 84.0 °F 85.8 °F 64.9 °F 53% 30.02 in 10.0 mi North 16.1 mph - N/A   Clear
2:53 PM 82.9 °F 85.4 °F 66.9 °F 58% 30.02 in 10.0 mi NNW 17.3 mph - N/A   Clear
3:53 PM 81.0 °F 83.3 °F 66.9 °F 62% 30.03 in 10.0 mi NNW 16.1 mph - N/A   Clear
4:53 PM 80.1 °F 82.7 °F 68.0 °F 67% 30.04 in 10.0 mi NNW 12.7 mph - N/A   Clear
5:53 PM 78.1 °F - 68.0 °F 71% 30.06 in 9.0 mi West 3.5 mph - N/A   Clear
6:53 PM 78.1 °F - 68.0 °F 71% 30.06 in 10.0 mi SW 3.5 mph - N/A   Clear
7:53 PM 75.0 °F - 64.0 °F 69% 30.08 in 10.0 mi SE 3.5 mph - N/A   Clear
8:53 PM 75.0 °F - 64.9 °F 71% 30.09 in 10.0 mi SE 5.8 mph - N/A   Clear
9:53 PM 73.9 °F - 63.0 °F 68% 30.11 in 10.0 mi SE 6.9 mph - N/A   Clear
10:53 PM 73.9 °F - 63.0 °F 68% 30.12 in 10.0 mi ESE 5.8 mph - N/A   Clear
11:53 PM 73.0 °F - 63.0 °F 71% 30.12 in 10.0 mi ESE 6.9 mph - N/A   Clear